Tracking 21076 objects as of 10-Aug-2020
HD Live streaming from Space Station
objects crossing your sky now
Track the most recent launched group of Starlink satellites

COSMOS 2251 DEB

Track COSMOS 2251 DEB now!
10-day predictions


NORAD ID: 36074
Int'l Code: 1993-036AYM
Perigee: 757.3 km
Apogee: 835.4 km
Inclination: 74.0 °
Period: 100.6 minutes
Semi major axis: 7167 km
RCS: 0.0022 m2 (small)
Launch date: June 16, 1993
Source: Commonwealth of Independent States (former USSR) (CIS)
Launch site: PLESETSK MISSILE AND SPACE COMPLEX (PKMTR)

Note: This is SATELLITE DEBRIS
aabbcc
Your satellite tracking list
Your tracking list is empty




NASA's NSSDC Master Catalog

Two Line Element Set (TLE):
1 36074U 93036AYM 20220.62504838  .00000214  00000-0  90267-4 0  9998
2 36074  73.9977 328.6548 0054514 151.4080 209.0079 14.30751101582328
Source of the keplerian elements: AFSPC